TimeCDT,TemperatureF,Dew PointF,Humidity,Sea Level PressureIn,VisibilityMPH,Wind Direction,Wind SpeedMPH,Gust SpeedMPH,PrecipitationIn,Events,Conditions,WindDirDegrees,DateUTC
12:53 AM,72.0,66.0,81,29.91,10.0,SSE,12.7,-,N/A,,Clear,160,2013-06-16 05:53:00
1:53 AM,71.1,64.9,81,29.90,10.0,South,9.2,-,N/A,,Clear,170,2013-06-16 06:53:00
2:53 AM,71.1,64.0,78,29.91,10.0,South,8.1,-,N/A,,Clear,170,2013-06-16 07:53:00
3:53 AM,70.0,64.0,81,29.91,10.0,South,10.4,-,N/A,,Clear,180,2013-06-16 08:53:00
4:53 AM,70.0,64.9,84,29.94,10.0,South,4.6,-,N/A,,Clear,180,2013-06-16 09:53:00
5:53 AM,70.0,64.9,84,29.99,10.0,North,8.1,-,N/A,,Overcast,360,2013-06-16 10:53:00
6:53 AM,70.0,66.0,87,29.99,10.0,Calm,Calm,-,N/A,,Clear,0,2013-06-16 11:53:00
7:53 AM,72.0,66.0,81,29.99,10.0,East,5.8,-,N/A,,Clear,90,2013-06-16 12:53:00
8:53 AM,77.0,66.9,71,29.99,10.0,SE,8.1,-,N/A,,Clear,140,2013-06-16 13:53:00
9:53 AM,82.0,68.0,62,29.97,10.0,SSW,11.5,-,N/A,,Clear,200,2013-06-16 14:53:00
10:53 AM,86.0,68.0,55,29.94,10.0,South,13.8,-,N/A,,Clear,190,2013-06-16 15:53:00
11:53 AM,90.0,66.0,45,29.89,10.0,South,24.2,28.8,N/A,,Clear,170,2013-06-16 16:53:00
12:53 PM,91.9,64.9,41,29.91,10.0,SSW,15.0,24.2,N/A,,Clear,210,2013-06-16 17:53:00
1:53 PM,95.0,61.0,32,29.88,10.0,South,18.4,25.3,N/A,,Clear,180,2013-06-16 18:53:00
2:53 PM,96.1,61.0,31,29.88,10.0,SSW,12.7,21.9,N/A,,Clear,210,2013-06-16 19:53:00
3:53 PM,95.0,61.0,32,29.87,10.0,SSW,13.8,-,N/A,,Clear,200,2013-06-16 20:53:00
4:53 PM,93.9,60.1,32,29.85,10.0,South,8.1,18.4,N/A,,Clear,190,2013-06-16 21:53:00
5:53 PM,95.0,61.0,32,29.83,10.0,Variable,5.8,-,N/A,,Clear,0,2013-06-16 22:53:00
6:53 PM,93.0,59.0,32,29.83,10.0,Calm,Calm,-,N/A,,Partly Cloudy,0,2013-06-16 23:53:00
7:20 PM,82.4,64.4,54,29.91,10.0,ENE,15.0,-,N/A,,Overcast,70,2013-06-17 00:20:00
7:53 PM,81.0,64.9,58,29.84,10.0,East,16.1,-,N/A,,Partly Cloudy,90,2013-06-17 00:53:00
8:53 PM,79.0,66.9,66,29.84,10.0,SE,13.8,-,N/A,,Clear,130,2013-06-17 01:53:00
9:53 PM,78.1,66.0,66,29.84,10.0,ESE,12.7,-,N/A,,Clear,120,2013-06-17 02:53:00
10:53 PM,77.0,66.9,71,29.87,10.0,East,4.6,-,N/A,,Clear,100,2013-06-17 03:53:00
11:53 PM,75.0,66.9,76,29.88,10.0,ESE,9.2,-,N/A,,Clear,120,2013-06-17 04:53:00